Regional Weather Roundup
Issued by NWS Newport/Morehead, NC

Current Version | Previous Version | Graphics & Text | Print | Product List | Glossary Off
Versions: 1 2 3 4 5 6 7 8 9 10 11 12 13 14 15 16 17 18 19 20 21 22 23 24 25 26 27 28 29 30 31 32 33 34 35 36

000
ASUS42 KMHX 240410
RWRMHX
WEATHER ROUNDUP FOR EASTERN NORTH CAROLINA
NATIONAL WEATHER SERVICE NEWPORT/MOREHEAD CITY NC
1200 AM EDT THU APR 24 2014

NOTE: "FAIR" INDICATES FEW OR NO CLOUDS BELOW 12,000 FEET
WITH NO SIGNIFICANT WEATHER AND/OR OBSTRUCTIONS TO VISIBILITY

NCZ015>017-031-032-045>047-102-103-240500-
NORTH COAST

CITY           SKY/WX    TMP DP  RH WIND       PRES   REMARKS
EDENTON        CLEAR     48  41  74 CALM      29.97R
ELIZABETH CITY CLEAR     52  38  58 NW6       29.96R
KITTY HAWK     CLEAR     54  40  59 N6        29.94R
MANTEO         CLEAR     55  41  60 CALM      29.96R

$$

NCZ045>047-081-094-103-104-240500-
CENTRAL COAST

CITY           SKY/WX    TMP DP  RH WIND       PRES   REMARKS
FRISCO         CLEAR     46  40  79 NE3       29.96R
SWANQUARTER      N/A     50 N/A N/A NE1       29.91S

$$

NCZ095-097-098-100-101-240500-
SOUTHERN COAST

CITY           SKY/WX    TMP DP  RH WIND       PRES   REMARKS
BEAUFORT       CLEAR     53  45  74 CALM      29.94R
CEDAR ISLAND     N/A     59 N/A N/A E13       29.97S
JACKSONVILLE   CLEAR     50  46  86 CALM      29.94R
NEWPORT          N/A     46  41  81 CALM        N/A
PINEY ISLAND   CLEAR     60  52  74 E8        29.95R
WILMINGTON     CLEAR     53  44  71 CALM      29.95R


$$

NCZ011>013-027>030-043-044-078>080-089-090>093-098-240500-
COASTAL PLAIN

CITY           SKY/WX    TMP DP  RH WIND       PRES   REMARKS
AHOSKIE        CLEAR     47  38  70 CALM      29.98R
CLINTON        CLEAR     50  43  76 CALM      29.97R
ELIZABETHTOWN  CLEAR     53  43  68 CALM      29.96R
GOLDSBORO      CLEAR     58  36  43 N6        29.95R
GREENVILLE     CLEAR     50  39  66 N3        29.99R
HAVELOCK       CLEAR     49  40  71 CALM      29.94R
KENANSVILLE    CLEAR     46  41  83 CALM      29.97R
KINSTON        CLEAR     52  39  61 N6        29.97R
NEW BERN       CLEAR     52  42  69 N5        29.96R
RICHLANDS      CLEAR     46  46 100 CALM      29.96R
ROANOKE RAPIDS NOT AVBL
ROCKY MOUNT    CLEAR     51  36  56 N6        29.98R
WASHINGTON     CLEAR     53  41  63 N5        29.97R
WHITEVILLE     CLEAR     53  43  69 CALM      29.95R

$$

AMZ130-135-150-152-154-156-158-170-250-252-270-ANZ085-086-088-633-658-670-240500-
MARINE OBSERVATIONS

STATION/POSITION TIME  TEMP    WIND        PRES    WAVE   SWELL
                       AIR SEA DIR/SP/G            HT/PER HT/PER
                 (UTC) (F)     (DEG/KT/KT) (MB)    (FT/S) (FT/S)
CHESAPEAKE LIGHT 0300   54     340/ 24/ 26 1013.7
BUOY 44014       0400   53 49  330/ 19/ 23 1012.5    4/ 5   2/ 9
DUCK             0400   54 51  350/  9/ 10 1013.0
2E DUCK          0400      50                N/A     3/ 5   2/15
OREGON INLET     0400   52 54  330/  4/  5 1014.1
BUOY 44095       0400      51                N/A     5/ 9   2/11
HATTERAS CG      0400   54 62   50/  2/  4 1014.5
DIAMOND BUOY     0400   62 75  360/ 12/ 16 1013.9    4/ 9   3/ 9
CAPE LOOKOUT     0300   62      30/  4/  4 1013.2
BEAUFORT LAB     0400   59 63  350/  3/  3 1012.9
30 SE NEW RIVER  0400   67 69   10/  8/ 10 1014.3    3/ 8   2/ 8
5 SE WRIGHTSVILL 0300   64 63   30/  6/  6 1013.6
FRYING PAN BUOY  0400   67 68   50/  6/  8 1013.9    2/ 9   2/ 9
BUOY 41001       NOT AVBL
BUOY 41002       NOT AVBL
BUOY 41004       0400   67 67  250/  6/  6 1013.0    2/ 8   2/ 8

$$



USA.gov is the U.S. government's official web portal to all federal, state and local government web resources and services.